Find Starlink 37966

NORAD ID: 100478 Int'l Des: 2026-196 Owner: SPXS Country: US Constellation: starlink operational

Aktuelle Ansicht

3D-Globus wird geladen...

About Starlink 37966

Starlink 37966 (NORAD 100478) is a starlink constellation satellite launched Aug 25, 2026 by SPXS of US. with a mass of 575.00 kg.

Nächste Überflüge

Passes for default location (London). Set your location on the main map for personalized predictions.

Höhenverlauf

Loading altitude history...

Zweizeiliger Elementsatz

1 A0478U 26196F 26254.42568253 .00167912 00000-0 87712-3 0 9991
2 A0478 53.1573 286.9616 0001825 84.2153 275.9077 15.79870390 3922
Epoch: 11. Sept. 2026 • Age: 13 hours

Aktueller Status

Höhe 331.0 km
Apogäum / Perigäum N/A
Geschwindigkeit 7.71 km/s
Subsatellitenpunkt 2.46°N, 124.86°E
Startdatum 25. Aug. 2026
Alter 17 days
Typ internet

Technische Details

Klassifizierung Payload
Masse 575.00 kg
Trockenmasse 530.00 kg
Gesamtmasse 575.00 kg
Länge 0.30 m
Durchmesser 4.10 m
Spannweite 29.00 m
Form Box + pan
Hersteller SPXS
Bus-Typ Starlink V2MO
Phasenstatus In Orbit
Besitzer/Staat SPXS/US

Most Searched